Time,TemperatureF,DewpointF,PressureIn,WindDirection,WindDirectionDegrees,WindSpeedMPH,WindSpeedGustMPH,Humidity,HourlyPrecipIn,Conditions,Clouds,dailyrainin,SoftwareType,DateUTC
2013-05-03 00:03:00,66.0,64.0,29.84,East,84,0.0,0.0,93,0.00,,,0.74,,2013-05-03 04:03:00,
2013-05-03 00:12:00,66.0,64.0,29.84,East,84,0.0,0.0,93,0.00,,,0.74,,2013-05-03 04:12:00,
2013-05-03 00:23:00,66.0,64.0,29.83,East,84,0.0,0.0,93,0.00,,,0.74,,2013-05-03 04:23:00,
2013-05-03 00:32:00,66.0,64.0,29.83,East,84,0.0,0.0,94,0.00,,,0.74,,2013-05-03 04:32:00,
2013-05-03 00:43:00,66.0,64.0,29.83,East,84,0.0,0.0,94,0.00,,,0.74,,2013-05-03 04:43:00,
2013-05-03 00:53:00,66.0,64.0,29.82,East,84,0.0,0.0,94,0.00,,,0.74,,2013-05-03 04:53:00,
2013-05-03 01:02:00,66.0,64.0,29.81,East,84,0.0,0.0,94,0.00,,,0.74,,2013-05-03 05:02:00,
2013-05-03 01:12:00,66.0,64.0,29.81,East,84,0.0,0.0,94,0.00,,,0.74,,2013-05-03 05:12:00,
2013-05-03 01:21:00,65.0,63.0,29.81,East,84,0.0,0.0,94,0.00,,,0.74,,2013-05-03 05:21:00,
2013-05-03 01:32:00,65.0,63.0,29.81,East,84,0.0,0.0,94,0.00,,,0.74,,2013-05-03 05:32:00,
2013-05-03 01:42:00,65.0,63.0,29.81,East,84,0.0,0.0,94,0.00,,,0.74,,2013-05-03 05:42:00,
2013-05-03 01:52:00,64.0,62.0,29.79,East,84,0.0,0.0,94,0.00,,,0.74,,2013-05-03 05:52:00,
2013-05-03 02:02:00,64.0,62.0,29.79,East,84,0.0,0.0,94,0.00,,,0.74,,2013-05-03 06:02:00,
2013-05-03 02:12:00,64.0,62.0,29.79,East,84,0.0,0.0,94,0.00,,,0.74,,2013-05-03 06:12:00,
2013-05-03 02:21:00,65.0,64.0,29.78,East,84,0.0,0.0,95,0.00,,,0.74,,2013-05-03 06:21:00,
2013-05-03 02:32:00,65.0,64.0,29.78,East,84,0.0,0.0,95,0.00,,,0.74,,2013-05-03 06:32:00,
2013-05-03 02:42:00,65.0,64.0,29.78,East,84,0.0,0.0,95,0.00,,,0.74,,2013-05-03 06:42:00,
2013-05-03 02:52:00,65.0,64.0,29.78,East,84,0.0,0.0,95,0.00,,,0.74,,2013-05-03 06:52:00,
2013-05-03 03:01:00,65.0,64.0,29.78,East,84,0.0,0.0,95,0.00,,,0.74,,2013-05-03 07:01:00,
2013-05-03 03:02:00,66.0,65.0,29.76,East,84,0.0,0.0,95,0.00,,,0.73,,2013-05-03 07:02:00,
2013-05-03 03:22:00,66.0,65.0,29.76,East,84,0.0,0.0,95,0.00,,,0.73,,2013-05-03 07:22:00,
2013-05-03 03:32:00,66.0,65.0,29.76,East,84,0.0,0.0,95,0.00,,,0.73,,2013-05-03 07:32:00,
2013-05-03 03:42:00,66.0,65.0,29.76,East,84,0.0,0.0,95,0.00,,,0.73,,2013-05-03 07:42:00,
2013-05-03 03:52:00,66.0,65.0,29.76,East,84,0.0,0.0,95,0.00,,,0.73,,2013-05-03 07:52:00,
2013-05-03 04:22:00,65.0,64.0,29.75,East,84,0.0,0.0,95,0.00,,,0.73,,2013-05-03 08:22:00,
2013-05-03 04:32:00,65.0,64.0,29.75,East,84,0.0,0.0,95,0.00,,,0.73,,2013-05-03 08:32:00,
2013-05-03 04:42:00,65.0,64.0,29.75,East,84,0.0,0.0,95,0.00,,,0.73,,2013-05-03 08:42:00,
2013-05-03 04:53:00,64.0,62.0,29.74,East,84,0.0,0.0,94,0.00,,,0.73,,2013-05-03 08:53:00,
2013-05-03 05:01:00,64.0,62.0,29.74,East,84,0.0,0.0,94,0.00,,,0.73,,2013-05-03 09:01:00,
2013-05-03 05:12:00,64.0,62.0,29.74,East,84,0.0,0.0,94,0.00,,,0.73,,2013-05-03 09:12:00,
2013-05-03 05:21:00,63.0,62.0,29.75,East,84,0.0,0.0,95,0.00,,,0.73,,2013-05-03 09:21:00,
2013-05-03 05:32:00,63.0,62.0,29.75,East,84,0.0,0.0,95,0.00,,,0.73,,2013-05-03 09:32:00,
2013-05-03 05:42:00,63.0,62.0,29.75,East,84,0.0,0.0,95,0.00,,,0.73,,2013-05-03 09:42:00,
2013-05-03 05:53:00,63.0,62.0,29.75,East,84,0.0,0.0,95,0.00,,,0.73,,2013-05-03 09:53:00,
2013-05-03 06:03:00,62.0,61.0,29.75,East,84,0.0,0.0,95,0.00,,,0.73,,2013-05-03 10:03:00,
2013-05-03 06:12:00,62.0,61.0,29.75,East,84,0.0,0.0,95,0.00,,,0.73,,2013-05-03 10:12:00,
2013-05-03 06:22:00,62.0,61.0,29.75,East,84,0.0,0.0,95,0.00,,,0.73,,2013-05-03 10:22:00,
2013-05-03 06:32:00,62.0,61.0,29.76,East,84,0.0,0.0,95,0.00,,,0.73,,2013-05-03 10:32:00,
2013-05-03 06:42:00,62.0,61.0,29.76,East,84,0.0,0.0,95,0.00,,,0.73,,2013-05-03 10:42:00,
2013-05-03 06:52:00,62.0,61.0,29.76,East,84,0.0,0.0,95,0.00,,,0.73,,2013-05-03 10:52:00,
2013-05-03 07:02:00,62.0,61.0,29.76,East,84,0.0,0.0,95,0.00,,,0.73,,2013-05-03 11:02:00,
2013-05-03 07:11:00,62.0,61.0,29.76,East,84,0.0,0.0,95,0.00,,,0.73,,2013-05-03 11:11:00,
2013-05-03 07:22:00,63.0,62.0,29.77,East,84,0.0,0.0,95,0.00,,,0.70,,2013-05-03 11:22:00,
2013-05-03 07:32:00,63.0,62.0,29.77,East,84,0.0,0.0,95,0.00,,,0.70,,2013-05-03 11:32:00,
2013-05-03 07:42:00,63.0,62.0,29.77,East,84,0.0,0.0,95,0.00,,,0.70,,2013-05-03 11:42:00,
2013-05-03 07:52:00,64.0,63.0,29.78,East,84,0.0,0.0,96,0.00,,,0.68,,2013-05-03 11:52:00,
2013-05-03 08:02:00,64.0,63.0,29.78,East,84,0.0,0.0,96,0.00,,,0.68,,2013-05-03 12:02:00,
2013-05-03 08:12:00,64.0,63.0,29.78,East,84,0.0,0.0,96,0.00,,,0.68,,2013-05-03 12:12:00,
2013-05-03 08:21:00,66.0,65.0,29.78,East,84,0.0,0.0,96,0.00,,,0.64,,2013-05-03 12:21:00,
2013-05-03 08:32:00,66.0,65.0,29.78,East,84,0.0,0.0,96,0.00,,,0.64,,2013-05-03 12:32:00,
2013-05-03 08:42:00,66.0,65.0,29.78,East,84,0.0,0.0,96,0.00,,,0.64,,2013-05-03 12:42:00,
2013-05-03 08:52:00,67.0,66.0,29.78,East,84,0.0,0.0,96,0.00,,,0.64,,2013-05-03 12:52:00,
2013-05-03 09:01:00,68.0,67.0,29.78,East,84,0.0,1.0,96,0.00,,,0.48,,2013-05-03 13:01:00,
2013-05-03 09:11:00,68.0,67.0,29.78,East,84,0.0,1.0,96,0.00,,,0.48,,2013-05-03 13:11:00,
2013-05-03 09:22:00,70.0,69.0,29.78,East,84,0.0,0.0,96,0.00,,,0.45,,2013-05-03 13:22:00,
2013-05-03 09:32:00,72.0,70.0,29.78,East,84,0.0,1.0,95,0.00,,,0.45,,2013-05-03 13:32:00,
2013-05-03 09:42:00,72.0,70.0,29.78,East,84,0.0,1.0,95,0.00,,,0.45,,2013-05-03 13:42:00,
2013-05-03 09:52:00,74.0,71.0,29.78,East,84,0.0,0.0,90,0.00,,,0.44,,2013-05-03 13:52:00,
2013-05-03 10:02:00,74.0,71.0,29.78,East,84,0.0,0.0,90,0.00,,,0.44,,2013-05-03 14:02:00,
2013-05-03 10:11:00,74.0,71.0,29.78,East,84,0.0,0.0,90,0.00,,,0.44,,2013-05-03 14:11:00,
2013-05-03 10:22:00,77.0,72.0,29.78,West,265,0.0,1.0,85,0.00,,,0.43,,2013-05-03 14:22:00,
2013-05-03 10:32:00,78.0,72.0,29.78,West,264,3.0,4.0,82,0.00,,,0.43,,2013-05-03 14:32:00,
2013-05-03 10:42:00,78.0,72.0,29.78,West,264,3.0,4.0,82,0.00,,,0.43,,2013-05-03 14:42:00,
2013-05-03 10:52:00,78.0,72.0,29.78,West,264,3.0,4.0,82,0.00,,,0.43,,2013-05-03 14:52:00,
2013-05-03 11:01:00,78.0,72.0,29.78,West,264,3.0,4.0,82,0.00,,,0.43,,2013-05-03 15:01:00,
2013-05-03 11:11:00,78.0,72.0,29.78,West,264,3.0,4.0,82,0.00,,,0.43,,2013-05-03 15:11:00,
2013-05-03 11:22:00,81.0,72.0,29.76,West,273,0.0,1.0,74,0.72,,,1.14,,2013-05-03 15:22:00,
2013-05-03 11:32:00,81.0,71.0,29.77,SW,234,0.0,6.0,72,0.72,,,1.14,,2013-05-03 15:32:00,
2013-05-03 11:43:00,81.0,71.0,29.77,SW,234,0.0,6.0,72,0.72,,,1.14,,2013-05-03 15:43:00,
2013-05-03 11:53:00,82.0,71.0,29.76,NW,304,3.0,5.0,69,0.72,,,1.12,,2013-05-03 15:53:00,
2013-05-03 12:03:00,84.0,72.0,29.77,West,267,0.0,5.0,67,0.72,,,1.12,,2013-05-03 16:03:00,
2013-05-03 12:13:00,84.0,72.0,29.77,West,267,0.0,5.0,67,0.72,,,1.12,,2013-05-03 16:13:00,
2013-05-03 12:23:00,84.0,70.0,29.76,NW,305,0.0,1.0,64,0.00,,,1.11,,2013-05-03 16:23:00,
2013-05-03 12:32:00,85.0,70.0,29.76,NNW,342,2.0,7.0,62,0.00,,,1.11,,2013-05-03 16:32:00,
2013-05-03 12:42:00,85.0,70.0,29.76,NNW,342,2.0,7.0,62,0.00,,,1.11,,2013-05-03 16:42:00,
2013-05-03 12:52:00,85.0,70.0,29.76,SSW,193,1.0,3.0,60,0.00,,,1.09,,2013-05-03 16:52:00,
2013-05-03 13:02:00,85.0,70.0,29.76,SSW,193,1.0,3.0,60,0.00,,,1.09,,2013-05-03 17:02:00,
2013-05-03 13:12:00,85.0,68.0,29.75,SW,217,3.0,5.0,57,0.00,,,1.04,,2013-05-03 17:12:00,
2013-05-03 13:23:00,85.0,68.0,29.75,SW,217,3.0,5.0,57,0.00,,,1.04,,2013-05-03 17:23:00,
2013-05-03 13:32:00,86.0,70.0,29.75,WNW,291,2.0,5.0,60,0.00,,,1.04,,2013-05-03 17:32:00,
2013-05-03 13:42:00,86.0,70.0,29.75,WNW,291,2.0,5.0,60,0.00,,,1.04,,2013-05-03 17:42:00,
2013-05-03 13:52:00,85.0,70.0,29.74,WNW,301,0.0,3.0,60,0.00,,,1.00,,2013-05-03 17:52:00,
2013-05-03 14:01:00,86.0,69.0,29.74,NW,308,3.0,4.0,57,0.00,,,1.00,,2013-05-03 18:01:00,
2013-05-03 14:12:00,86.0,69.0,29.74,NW,308,3.0,4.0,57,0.00,,,1.00,,2013-05-03 18:12:00,
2013-05-03 14:21:00,86.0,69.0,29.73,WNW,284,3.0,6.0,58,0.00,,,0.94,,2013-05-03 18:21:00,
2013-05-03 14:32:00,86.0,69.0,29.73,WNW,284,3.0,6.0,58,0.00,,,0.94,,2013-05-03 18:32:00,
2013-05-03 14:42:00,86.0,69.0,29.73,WNW,284,3.0,6.0,58,0.00,,,0.94,,2013-05-03 18:42:00,
2013-05-03 14:52:00,86.0,71.0,29.73,WNW,303,0.0,4.0,62,0.00,,,0.83,,2013-05-03 18:52:00,
2013-05-03 15:01:00,86.0,71.0,29.73,WNW,303,0.0,4.0,62,0.00,,,0.83,,2013-05-03 19:01:00,
2013-05-03 15:11:00,86.0,71.0,29.73,WNW,303,0.0,4.0,62,0.00,,,0.83,,2013-05-03 19:11:00,
2013-05-03 15:21:00,85.0,71.0,29.72,WSW,246,2.0,3.0,63,0.00,,,0.77,,2013-05-03 19:21:00,
2013-05-03 15:32:00,86.0,70.0,29.72,WNW,282,2.0,8.0,60,0.00,,,0.77,,2013-05-03 19:32:00,
2013-05-03 15:42:00,86.0,70.0,29.72,WNW,282,2.0,8.0,60,0.00,,,0.77,,2013-05-03 19:42:00,
2013-05-03 15:52:00,86.0,70.0,29.71,SW,225,3.0,7.0,59,0.00,,,0.74,,2013-05-03 19:52:00,
2013-05-03 16:02:00,86.0,70.0,29.71,SW,225,3.0,7.0,59,0.00,,,0.74,,2013-05-03 20:02:00,
2013-05-03 16:11:00,86.0,70.0,29.71,SW,225,3.0,7.0,59,0.00,,,0.74,,2013-05-03 20:11:00,
2013-05-03 16:21:00,85.0,69.0,29.70,SW,236,0.0,9.0,58,0.00,,,0.74,,2013-05-03 20:21:00,
2013-05-03 16:32:00,85.0,69.0,29.70,SW,236,0.0,9.0,58,0.00,,,0.74,,2013-05-03 20:32:00,
2013-05-03 16:42:00,85.0,69.0,29.70,SW,236,0.0,9.0,58,0.00,,,0.74,,2013-05-03 20:42:00,
2013-05-03 16:52:00,85.0,68.0,29.69,WNW,294,3.0,6.0,57,0.00,,,0.72,,2013-05-03 20:52:00,
2013-05-03 17:02:00,85.0,68.0,29.69,WNW,294,3.0,6.0,57,0.00,,,0.72,,2013-05-03 21:02:00,
2013-05-03 17:11:00,85.0,68.0,29.69,WNW,294,3.0,6.0,57,0.00,,,0.72,,2013-05-03 21:11:00,
2013-05-03 17:21:00,85.0,68.0,29.69,WNW,294,3.0,6.0,57,0.00,,,0.72,,2013-05-03 21:21:00,
2013-05-03 18:03:00,82.0,70.0,29.70,WSW,250,4.0,10.0,67,0.00,,,0.72,,2013-05-03 22:03:00,
2013-05-03 18:13:00,82.0,70.0,29.70,WSW,250,4.0,10.0,67,0.00,,,0.72,,2013-05-03 22:13:00,
2013-05-03 18:22:00,82.0,71.0,29.70,WNW,283,1.0,3.0,69,0.00,,,0.72,,2013-05-03 22:22:00,
2013-05-03 18:32:00,82.0,71.0,29.69,WNW,283,0.0,8.0,69,0.00,,,0.72,,2013-05-03 22:32:00,
2013-05-03 18:42:00,82.0,71.0,29.69,WNW,283,0.0,8.0,69,0.00,,,0.72,,2013-05-03 22:42:00,
2013-05-03 18:52:00,82.0,71.0,29.69,WNW,283,0.0,8.0,69,0.00,,,0.72,,2013-05-03 22:52:00,
2013-05-03 19:02:00,82.0,71.0,29.69,WNW,283,0.0,8.0,69,0.00,,,0.72,,2013-05-03 23:02:00,
2013-05-03 19:11:00,82.0,71.0,29.69,WNW,283,0.0,8.0,69,0.00,,,0.72,,2013-05-03 23:11:00,
2013-05-03 19:22:00,79.0,71.0,29.70,NNW,337,0.0,4.0,76,0.00,,,0.72,,2013-05-03 23:22:00,
2013-05-03 19:32:00,78.0,70.0,29.70,West,281,4.0,10.0,77,0.00,,,0.72,,2013-05-03 23:32:00,
2013-05-03 19:41:00,78.0,70.0,29.70,West,281,4.0,10.0,77,0.00,,,0.72,,2013-05-03 23:41:00,
2013-05-03 19:52:00,78.0,71.0,29.71,NW,320,0.0,10.0,78,0.00,,,0.72,,2013-05-03 23:52:00,
2013-05-03 20:01:00,77.0,70.0,29.71,WSW,248,1.0,9.0,79,0.00,,,0.72,,2013-05-04 00:01:00,
2013-05-03 20:11:00,77.0,70.0,29.71,WSW,248,1.0,9.0,79,0.00,,,0.72,,2013-05-04 00:11:00,
2013-05-03 20:23:00,76.0,70.0,29.72,WNW,292,1.0,4.0,81,0.00,,,0.72,,2013-05-04 00:23:00,
2013-05-03 20:32:00,76.0,70.0,29.72,WNW,292,1.0,4.0,81,0.00,,,0.72,,2013-05-04 00:32:00,
2013-05-03 20:42:00,76.0,70.0,29.72,WNW,292,1.0,4.0,81,0.00,,,0.72,,2013-05-04 00:42:00,
2013-05-03 20:52:00,75.0,69.0,29.72,WNW,286,0.0,1.0,82,0.00,,,0.72,,2013-05-04 00:52:00,
2013-05-03 21:01:00,75.0,69.0,29.72,WNW,286,0.0,1.0,82,0.00,,,0.72,,2013-05-04 01:01:00,
2013-05-03 21:11:00,75.0,69.0,29.72,WNW,286,0.0,1.0,82,0.00,,,0.72,,2013-05-04 01:11:00,
2013-05-03 21:21:00,74.0,68.0,29.73,WNW,297,0.0,1.0,82,0.00,,,0.72,,2013-05-04 01:21:00,
2013-05-03 21:32:00,74.0,68.0,29.73,WNW,297,0.0,1.0,82,0.00,,,0.72,,2013-05-04 01:32:00,
2013-05-03 21:42:00,74.0,68.0,29.73,WNW,297,0.0,1.0,82,0.00,,,0.72,,2013-05-04 01:42:00,
2013-05-03 21:52:00,74.0,68.0,29.73,WNW,297,0.0,1.0,82,0.00,,,0.72,,2013-05-04 01:52:00,
2013-05-03 22:02:00,73.0,68.0,29.74,WNW,290,0.0,1.0,85,0.00,,,0.72,,2013-05-04 02:02:00,
2013-05-03 22:11:00,73.0,68.0,29.74,WNW,290,0.0,1.0,85,0.00,,,0.72,,2013-05-04 02:11:00,
2013-05-03 22:21:00,73.0,69.0,29.74,WNW,290,0.0,0.0,86,0.00,,,0.72,,2013-05-04 02:21:00,
2013-05-03 22:32:00,72.0,68.0,29.75,WNW,290,0.0,0.0,86,0.00,,,0.72,,2013-05-04 02:32:00,
2013-05-03 22:42:00,72.0,68.0,29.75,WNW,290,0.0,0.0,86,0.00,,,0.72,,2013-05-04 02:42:00,
2013-05-03 22:52:00,71.0,67.0,29.75,WNW,290,0.0,0.0,88,0.00,,,0.72,,2013-05-04 02:52:00,
2013-05-03 23:02:00,71.0,67.0,29.75,WNW,290,0.0,0.0,88,0.00,,,0.72,,2013-05-04 03:02:00,
2013-05-03 23:11:00,71.0,67.0,29.75,WNW,290,0.0,0.0,88,0.00,,,0.72,,2013-05-04 03:11:00,
2013-05-03 23:22:00,70.0,67.0,29.75,WNW,290,0.0,0.0,89,0.00,,,0.72,,2013-05-04 03:22:00,
2013-05-03 23:33:00,70.0,67.0,29.76,WNW,290,0.0,0.0,89,0.00,,,0.72,,2013-05-04 03:33:00,
2013-05-03 23:43:00,70.0,67.0,29.76,WNW,290,0.0,0.0,89,0.00,,,0.72,,2013-05-04 03:43:00,
2013-05-03 23:53:00,69.0,66.0,29.75,WNW,290,0.0,0.0,90,0.00,,,0.72,,2013-05-04 03:53:00,